This demonstration page uses our WeatherBlox Daily Observations layout. Learn more.

Left ArrowRight Arrow

39.92423, -83.80882

Hourly Observations for September 21, 2020

Temp ( °F °C ) Dew Point ( °F °C ) Humidity (%) Winds ( mph kmh ) Pressure ( in mb ) Visibility ( mi km ) Precip ( " mm )
12:56 am 00:56 Clear 46 7.8 39 3.9 77 77 ENE 5 7 30.45 1031 10 16 N/A
1:56 am 01:56 Clear 45 7.2 39 3.9 80 80 E 5 7 30.44 1031 10 16 N/A
2:56 am 02:56 Clear 43 6.1 39 3.9 86 86 E 3 6 30.43 1031 10 16 N/A
3:56 am 03:56 Clear 42 5.6 38 3.3 85 85 E 6 9 30.42 1030 10 16 N/A
4:56 am 04:56 Clear 41 5 38 3.3 89 89 E 7 11 30.42 1030 10 16 N/A
5:56 am 05:56 Clear 40 4.4 38 3.3 93 93 E 6 9 30.44 1031 7 11 N/A
6:56 am 06:56 Clear 41 5 39 3.9 93 93 ESE 3 6 30.45 1031 10 16 N/A
7:56 am 07:56 Sunny 42 5.6 39 3.9 89 89 E 5 7 30.48 1032 10 16 N/A
8:56 am 08:56 Sunny 49 9.4 44 6.7 83 83 E 7 11 30.48 1032 10 16 N/A
9:56 am 09:56 Sunny 56 13.3 44 6.7 65 65 SSE 9 15 30.49 1032 10 16 N/A
10:56 am 10:56 Sunny 61 16.1 43 6.1 52 52 SE 7 11 30.49 1033 10 16 N/A
11:56 am 11:56 Sunny 64 17.8 42 5.6 45 45 ESE 9 15 30.48 1032 10 16 N/A
12:56 pm 12:56 Sunny 68 20 41 5 38 38 ESE 9 15 30.45 1031 10 16 N/A
1:56 pm 13:56 Sunny 69 20.6 41 5 36 36 ESE 8 13 30.43 1030 10 16 N/A
2:56 pm 14:56 Sunny 71 21.7 40 4.4 32 32 SSE 8 13 30.40 1030 10 16 N/A
3:56 pm 15:56 Sunny 71 21.7 38 3.3 30 30 SE 12 19 30.38 1029 10 16 N/A
4:56 pm 16:56 Sunny 71 21.7 36 2.2 28 28 VRB 6 9 30.35 1028 10 16 N/A
5:56 pm 17:56 Sunny 69 20.6 38 3.3 32 32 SE 8 13 30.34 1027 10 16 N/A
6:56 pm 18:56 Sunny 65 18.3 40 4.4 40 40 ESE 6 9 30.35 1028 10 16 N/A
7:56 pm 19:56 Clear 56 13.3 42 5.6 60 60 ESE 5 7 30.34 1028 10 16 N/A
8:56 pm 20:56 Clear 50 10 42 5.6 74 74 ESE 5 7 30.35 1028 10 16 N/A
9:56 pm 21:56 Clear 48 8.9 42 5.6 80 80 E 6 9 30.35 1028 10 16 N/A
10:56 pm 22:56 Clear 45 7.2 41 5 86 86 E 3 6 30.35 1028 10 16 N/A
11:56 pm 23:56 Clear 43 6.1 41 5 93 93 E 5 7 30.34 1027 10 16 N/A

Powered by AerisWeather